Flag for Spain Weather past 2 weeks in Pamplona, Spain

Now
43 °F

Partly sunny.


Feels Like: 35 °F
Forecast: 36 / 49 °F
Wind: 16 mph from North

Location: Pamplona / Noain

Current Time: Mar 4, 2015 at 1:48:24 PM

Latest Report: Mar 4, 2015 at 1:00 PM


Visibility: 4 mi

Pressure: 30.54 "Hg

Humidity: 81%

Dew point: 37 °F

Location of PamplonaLocation

Historic Weather in Pamplona — Graph

°F

Pamplona temperature yesterday

Maximum temperature yesterday: 66 °F (at 4:00 PM)
Minimum temperature yesterday: 48 °F (at 12:00 AM)
Average temperature yesterday: 54 °F

Past Weeks' High & Low Weather Summary

 TemperatureHumidityPressure
High66 °F (Mar 3, 4:00 PM)100% (Feb 17, 8:00 PM)30.60 "Hg (Feb 17, 8:00 PM)
Low28 °F (Feb 19, 5:30 AM)44% (Feb 19, 4:30 PM)29.74 "Hg (Feb 21, 6:00 AM)
Average45 °F88%30.20 "Hg
* Reported Feb 17 12:00 Noon — Mar 4 12:30 PM, Pamplona, Weather by CustomWeather, © 2015

Note: Actual official high and low records may vary slightly from our data, if they occured in-between our weather recording intervals... More about our weather records

Advertising

Pamplona weather history for previous 24 hours

 ConditionsComfort  
Time TempWeatherWind HumidityBarometerVisibility
12:30 PM
Wed, Mar 4
46 °FPartly sunny.12 mph76%30.51 "HgN/A
12:00 PM43 °FPartly sunny.18 mph81%30.51 "HgN/A
11:30 AM45 °FPartly sunny.21 mph76%30.51 "HgN/A
11:00 AM43 °FLight rain. Partly sunny.13 mph81%30.51 "HgN/A
10:30 AM43 °FPartly sunny.15 mph76%30.51 "HgN/A
10:00 AM43 °FPartly sunny.15 mph76%30.51 "HgN/A
9:30 AM43 °FPartly sunny.12 mph81%30.48 "HgN/A
9:00 AM43 °FPartly sunny.15 mph76%30.48 "HgN/A
8:30 AM43 °FScattered clouds.23 mph76%30.45 "HgN/A
8:00 AM41 °FScattered clouds.17 mph87%30.45 "HgN/A
7:30 AM43 °FPassing clouds.18 mph81%30.45 "HgN/A
7:00 AM43 °FPassing clouds.18 mph81%30.42 "HgN/A
6:30 AM45 °FPassing clouds.22 mph81%30.42 "HgN/A
6:00 AM45 °FPassing clouds.23 mph81%30.39 "HgN/A
5:30 AM46 °FPartly cloudy.10 mph100%30.36 "Hg6 mi
1:00 AM48 °FLight rain. Partly cloudy.6 mph87%30.33 "HgN/A
12:30 AM50 °FPassing clouds.9 mph82%30.33 "HgN/A
12:00 AM50 °FPassing clouds.9 mph82%30.33 "HgN/A
11:30 PM
Tue, Mar 3
50 °FPassing clouds.3 mph82%30.33 "HgN/A
11:00 PM50 °FPassing clouds.8 mph82%30.33 "HgN/A
10:30 PM50 °FPassing clouds.8 mph82%30.33 "HgN/A
10:00 PM50 °FPassing clouds.13 mph82%30.30 "HgN/A
9:30 PM50 °FPassing clouds.10 mph88%30.30 "HgN/A
9:00 PM50 °FPassing clouds.6 mph88%30.30 "HgN/A
8:30 PM50 °FPassing clouds.9 mph88%30.27 "HgN/A
8:00 PM50 °FPartly cloudy.8 mph88%30.27 "HgN/A
7:30 PM50 °FPassing clouds.14 mph94%30.27 "HgN/A
7:00 PM54 °FPassing clouds.15 mph82%30.24 "HgN/A
6:30 PM57 °FPassing clouds.18 mph77%30.21 "HgN/A
6:00 PM64 °FScattered clouds.1 mph56%30.18 "HgN/A
5:30 PM64 °FScattered clouds.5 mph56%30.21 "HgN/A
5:00 PM64 °FScattered clouds.5 mph56%30.21 "HgN/A
4:30 PM66 °FScattered clouds.5 mph56%30.21 "HgN/A
4:00 PM66 °FScattered clouds.3 mph52%30.21 "HgN/A
3:30 PM64 °FScattered clouds.3 mph60%30.21 "HgN/A
3:00 PM64 °FScattered clouds.2 mph56%30.21 "HgN/A
2:30 PM63 °FScattered clouds.2 mph59%30.21 "HgN/A
2:00 PM61 °FScattered clouds.2 mph68%30.24 "HgN/A
1:30 PM57 °FScattered clouds.2 mph72%30.24 "HgN/A
1:00 PM57 °FPartly sunny.2 mph67%30.24 "HgN/A
Weather by CustomWeather, © 2015

See weather overviewHow to use our weather pages